TimeEST,TemperatureF,Dew PointF,Humidity,Sea Level PressureIn,VisibilityMPH,Wind Direction,Wind SpeedMPH,Gust SpeedMPH,PrecipitationIn,Events,Conditions,WindDirDegrees,DateUTC
12:54 AM,48.9,43.0,80,29.86,10.0,Calm,Calm,-,0.00,Rain,Light Rain,0,2011-12-31 05:54:00
1:54 AM,48.0,43.0,83,29.87,10.0,Calm,Calm,-,0.00,,Mostly Cloudy,0,2011-12-31 06:54:00
2:54 AM,46.9,43.0,86,29.87,10.0,NNE,4.6,-,N/A,,Partly Cloudy,30,2011-12-31 07:54:00
3:54 AM,44.6,42.8,93,29.90,7.0,NW,17.3,21.9,N/A,Rain,Rain,310,2011-12-31 08:54:00
4:54 AM,45.0,41.0,86,29.90,10.0,WSW,3.5,-,0.01,,Scattered Clouds,250,2011-12-31 09:54:00
5:54 AM,43.0,41.0,93,29.91,10.0,Calm,Calm,-,N/A,,Mostly Cloudy,0,2011-12-31 10:54:00
6:54 AM,42.1,39.9,92,29.92,10.0,Calm,Calm,-,N/A,,Partly Cloudy,0,2011-12-31 11:54:00
7:54 AM,39.9,37.9,93,29.95,9.0,Calm,Calm,-,N/A,,Scattered Clouds,0,2011-12-31 12:54:00
8:54 AM,44.6,39.2,81,29.97,10.0,WSW,4.6,-,N/A,,Mostly Cloudy,250,2011-12-31 13:54:00
9:54 AM,51.8,39.2,62,29.99,10.0,West,4.6,-,N/A,,Scattered Clouds,270,2011-12-31 14:54:00
10:54 AM,54.0,37.0,53,29.99,10.0,WNW,9.2,-,N/A,,Mostly Cloudy,300,2011-12-31 15:54:00
11:54 AM,55.0,36.0,49,29.97,10.0,West,17.3,27.6,N/A,,Scattered Clouds,280,2011-12-31 16:54:00
12:54 PM,55.0,36.0,49,29.99,10.0,West,15.0,25.3,N/A,,Mostly Cloudy,280,2011-12-31 17:54:00
1:54 PM,54.0,36.0,51,30.01,10.0,West,12.7,20.7,N/A,,Mostly Cloudy,270,2011-12-31 18:54:00
2:54 PM,53.6,35.6,51,30.04,10.0,West,11.5,-,N/A,,Mostly Cloudy,270,2011-12-31 19:54:00
3:54 PM,53.6,35.6,51,30.07,10.0,NW,9.2,-,N/A,,Mostly Cloudy,310,2011-12-31 20:54:00
4:54 PM,52.0,34.0,50,30.09,10.0,WNW,10.4,-,N/A,,Partly Cloudy,300,2011-12-31 21:54:00
5:54 PM,48.9,34.0,56,30.12,10.0,WNW,8.1,-,N/A,,Clear,300,2011-12-31 22:54:00
6:54 PM,48.9,34.0,56,30.13,10.0,North,4.6,-,N/A,,Clear,350,2011-12-31 23:54:00
7:54 PM,48.9,34.0,56,30.15,10.0,Calm,Calm,-,N/A,,Clear,0,2012-01-01 00:54:00
8:54 PM,44.1,34.0,68,30.15,10.0,Calm,Calm,-,N/A,,Clear,0,2012-01-01 01:54:00
9:54 PM,41.0,33.1,73,30.15,10.0,NW,4.6,-,N/A,,Clear,310,2012-01-01 02:54:00
10:54 PM,37.4,32.0,81,30.15,10.0,West,4.6,-,N/A,,Clear,280,2012-01-01 03:54:00
11:54 PM,39.0,33.1,79,30.16,10.0,Calm,Calm,-,N/A,,Clear,0,2012-01-01 04:54:00